FALCON 9 DEB (48414 NORAD) Tracking and Keplerian Element Data

This shows tracking and keplerian element data for the satellite.

Feedback or suggestion? Click here.




ElementValue
Catalog48414
NameFALCON 9 DEB
Epoch Orbit526
Epoch Day157.40600393
Epoch Year2021
RAAN233.8859
Inclination53.0397
Eccentricity0.0004403
Argument of Perigee289.7649
Mean Anonmoly70.2927
Mean Motion16.51539582
Decay Rate0.13785545
L11 48414U 21038BP 21157.40600393 .13785545 12709-4 12053-3 0 9991
L22 48414 53.0397 233.8859 0004403 289.7649 70.2927 16.51539582 5269

Live tracking and technical data element details for FALCON 9 DEB (NORAD 48414). FALCON 9 DEB can be tracked NOW for your location showing map with azimuth and elevation plus other details from your city location.

Track the satellite on the map from your city or location and see movement details for azimuth, elevation, latitude, longitude, range, height, and movement on the map or in text.







IsCatalogInMostPopularTable: catalog: 48414, numindb: 24
Update: records affected: 1



GetName: 48414 FALCON 9 DEB

Hit Count: updated at: Wed, 04 Aug 2021 00:06:54 GMT